When you browse on this site, cookies collect data to enhance your experience and personalize the content and advertising you see.
Visit our Privacy Policy to learn more. By continuing to use the site, you agree to this use of cookies and data.
  • In Czech Republic
  • List of Countries
  • For 7 days
  • Water Temperature
  • Weather Map
  • Weather Widgets
  • user-avatar
    Login

    Hourly Weather La Paz

    Today, 18 November, Monday

    Time Temperature Precipitation Wind Pressure Humidity
    00:00 +14°C° 0 mm 1 mps 607 mmHg 96%
    01:00 +13°C° 0 mm 0 mps 606 mmHg 95%
    02:00 +14°C° 0.1 mm 1 mps 606 mmHg 95%
    03:00 +14°C° 0.1 mm 1 mps 606 mmHg 95%
    04:00 +14°C° 0.1 mm 1 mps 606 mmHg 95%
    05:00 +14°C° 0 mm 1 mps 607 mmHg 93%
    06:00 +13°C° 0 mm 0 mps 607 mmHg 92%
    07:00 +14°C° 0 mm 0 mps 608 mmHg 90%
    08:00 +18°C° 0 mm 1 mps 609 mmHg 80%
    09:00 +21°C° 0 mm 1 mps 610 mmHg 69%
    10:00 +23°C° 0 mm 1 mps 611 mmHg 59%
    11:00 +23°C° 0.1 mm 1 mps 610 mmHg 61%
    12:00 +23°C° 0.1 mm 1 mps 610 mmHg 63%
    13:00 +23°C° 0.1 mm 2 mps 609 mmHg 65%
    14:00 +23°C° 0.2 mm 1 mps 608 mmHg 71%
    15:00 +22°C° 0.2 mm 1 mps 608 mmHg 76%
    16:00 +21°C° 0.2 mm 1 mps 607 mmHg 82%
    17:00 +19°C° 0.4 mm 1 mps 607 mmHg 87%
    18:00 +16°C° 0.4 mm 0 mps 607 mmHg 92%
    19:00 +14°C° 0.4 mm 0 mps 607 mmHg 97%
    20:00 +14°C° 0.2 mm 0 mps 607 mmHg 97%
    21:00 +13°C° 0.2 mm 0 mps 607 mmHg 97%
    22:00 +13°C° 0.2 mm 0 mps 608 mmHg 97%
    23:00 +13°C° 0.2 mm 0 mps 607 mmHg 97%

    Tomorrow, 19 November, Tuesday

    Time Temperature Precipitation Wind Pressure Humidity
    00:00 +13°C° 0.2 mm 0 mps 607 mmHg 97%
    01:00 +12°C° 0.2 mm 0 mps 607 mmHg 97%
    02:00 +12°C° 0.2 mm 0 mps 607 mmHg 97%
    03:00 +13°C° 0.2 mm 1 mps 607 mmHg 97%
    04:00 +13°C° 0.2 mm 1 mps 607 mmHg 97%
    05:00 +13°C° 0 mm 0 mps 607 mmHg 97%
    06:00 +13°C° 0 mm 0 mps 608 mmHg 96%
    07:00 +14°C° 0 mm 0 mps 608 mmHg 95%
    08:00 +18°C° 0.1 mm 1 mps 609 mmHg 86%
    09:00 +20°C° 0.1 mm 1 mps 610 mmHg 77%
    10:00 +22°C° 0.1 mm 1 mps 611 mmHg 68%
    11:00 +22°C° 0.4 mm 1 mps 610 mmHg 72%
    12:00 +21°C° 0.4 mm 1 mps 609 mmHg 77%
    13:00 +21°C° 0.4 mm 1 mps 608 mmHg 81%
    14:00 +21°C° 0.8 mm 1 mps 608 mmHg 84%
    15:00 +20°C° 0.8 mm 1 mps 608 mmHg 87%
    16:00 +20°C° 0.8 mm 1 mps 607 mmHg 89%
    17:00 +19°C° 0.5 mm 1 mps 607 mmHg 92%
    18:00 +15°C° 0.5 mm 0 mps 608 mmHg 95%
    19:00 +14°C° 0.5 mm 0 mps 608 mmHg 98%
    20:00 +14°C° 0.4 mm 0 mps 608 mmHg 98%
    21:00 +13°C° 0.4 mm 0 mps 608 mmHg 98%
    22:00 +13°C° 0.4 mm 0 mps 608 mmHg 97%
    23:00 +13°C° 0.2 mm 0 mps 608 mmHg 97%

    Day after tomorrow, 20 November, Wednesday

    Time Temperature Precipitation Wind Pressure Humidity
    00:00 +13°C° 0.2 mm 1 mps 608 mmHg 97%
    01:00 +13°C° 0.2 mm 1 mps 607 mmHg 97%
    02:00 +13°C° 0.1 mm 1 mps 607 mmHg 97%
    03:00 +13°C° 0.1 mm 1 mps 607 mmHg 97%
    04:00 +12°C° 0.1 mm 1 mps 607 mmHg 97%
    05:00 +13°C° 0.1 mm 1 mps 608 mmHg 96%
    06:00 +13°C° 0.1 mm 0 mps 608 mmHg 95%
    07:00 +13°C° 0.1 mm 0 mps 609 mmHg 95%
    08:00 +16°C° 0.2 mm 1 mps 610 mmHg 87%
    09:00 +19°C° 0.2 mm 1 mps 610 mmHg 80%
    10:00 +22°C° 0.2 mm 1 mps 611 mmHg 72%
    11:00 +21°C° 0.6 mm 1 mps 610 mmHg 74%
    12:00 +21°C° 0.6 mm 1 mps 610 mmHg 76%
    13:00 +21°C° 0.6 mm 1 mps 609 mmHg 78%
    14:00 +21°C° 0.7 mm 1 mps 608 mmHg 82%
    15:00 +20°C° 0.7 mm 1 mps 608 mmHg 87%
    16:00 +19°C° 0.7 mm 1 mps 607 mmHg 91%
    17:00 +16°C° 0.3 mm 0 mps 607 mmHg 93%
    18:00 +15°C° 0.3 mm 0 mps 607 mmHg 95%
    19:00 +13°C° 0.3 mm 0 mps 607 mmHg 97%
    20:00 +13°C° 0.1 mm 0 mps 608 mmHg 97%
    21:00 +14°C° 0.1 mm 1 mps 608 mmHg 96%
    22:00 +13°C° 0.1 mm 1 mps 608 mmHg 96%
    23:00 +13°C° 0.1 mm 1 mps 608 mmHg 96%

    21 November, Thursday

    Time Temperature Precipitation Wind Pressure Humidity
    00:00 +13°C° 0.1 mm 1 mps 607 mmHg 96%
    01:00 +13°C° 0.1 mm 1 mps 607 mmHg 96%
    02:00 +13°C° 0.1 mm 1 mps 607 mmHg 96%
    03:00 +12°C° 0.1 mm 1 mps 607 mmHg 96%
    04:00 +12°C° 0.1 mm 1 mps 607 mmHg 96%
    05:00 +13°C° 0.1 mm 1 mps 607 mmHg 95%
    06:00 +13°C° 0.1 mm 0 mps 608 mmHg 94%
    07:00 +13°C° 0.1 mm 0 mps 609 mmHg 93%
    08:00 +16°C° 0.1 mm 1 mps 609 mmHg 84%
    09:00 +20°C° 0.1 mm 1 mps 610 mmHg 75%
    10:00 +22°C° 0.1 mm 1 mps 611 mmHg 67%
    11:00 +22°C° 0.4 mm 1 mps 610 mmHg 71%
    12:00 +21°C° 0.4 mm 1 mps 609 mmHg 76%
    13:00 +21°C° 0.4 mm 1 mps 608 mmHg 80%
    14:00 +20°C° 0.9 mm 1 mps 608 mmHg 85%
    15:00 +20°C° 0.9 mm 1 mps 607 mmHg 89%
    16:00 +19°C° 0.9 mm 1 mps 607 mmHg 93%
    17:00 +16°C° 0.8 mm 0 mps 607 mmHg 95%
    18:00 +15°C° 0.8 mm 0 mps 607 mmHg 96%
    19:00 +14°C° 0.8 mm 0 mps 607 mmHg 97%
    20:00 +13°C° 0.2 mm 0 mps 607 mmHg 97%
    21:00 +14°C° 0.2 mm 1 mps 607 mmHg 97%
    22:00 +13°C° 0.2 mm 1 mps 608 mmHg 97%
    23:00 +13°C° 0.2 mm 1 mps 607 mmHg 97%

    22 November, Friday

    Time Temperature Precipitation Wind Pressure Humidity
    00:00 +13°C° 0.2 mm 1 mps 607 mmHg 97%
    01:00 +13°C° 0.2 mm 1 mps 606 mmHg 97%
    02:00 +13°C° 0.4 mm 1 mps 606 mmHg 97%
    03:00 +12°C° 0.4 mm 1 mps 606 mmHg 97%
    04:00 +12°C° 0.4 mm 1 mps 606 mmHg 97%
    05:00 +13°C° 0.3 mm 1 mps 607 mmHg 97%
    06:00 +13°C° 0.3 mm 1 mps 607 mmHg 96%
    07:00 +13°C° 0.3 mm 0 mps 608 mmHg 96%
    08:00 +14°C° 0.5 mm 0 mps 609 mmHg 91%
    09:00 +16°C° 0.5 mm 0 mps 609 mmHg 86%
    10:00 +19°C° 0.5 mm 1 mps 610 mmHg 82%
    11:00 +20°C° 0.5 mm 1 mps 610 mmHg 78%
    12:00 +21°C° 0.5 mm 1 mps 609 mmHg 75%
    13:00 +22°C° 0.5 mm 1 mps 609 mmHg 71%
    14:00 +21°C° 0.8 mm 1 mps 608 mmHg 77%
    15:00 +20°C° 0.8 mm 1 mps 608 mmHg 83%
    16:00 +20°C° 0.8 mm 1 mps 607 mmHg 89%
    17:00 +18°C° 1 mm 1 mps 607 mmHg 92%
    18:00 +15°C° 1 mm 0 mps 607 mmHg 95%
    19:00 +14°C° 1 mm 0 mps 607 mmHg 98%
    20:00 +14°C° 0.2 mm 0 mps 607 mmHg 97%
    21:00 +13°C° 0.2 mm 0 mps 607 mmHg 97%
    22:00 +13°C° 0.2 mm 0 mps 607 mmHg 97%
    23:00 +13°C° 0 mm 1 mps 607 mmHg 97%

    23 November, Saturday

    Time Temperature Precipitation Wind Pressure Humidity
    00:00 +13°C° 0 mm 1 mps 607 mmHg 97%
    01:00 +13°C° 0 mm 1 mps 606 mmHg 97%
    02:00 +13°C° 0.1 mm 1 mps 606 mmHg 97%
    03:00 +12°C° 0.1 mm 1 mps 606 mmHg 97%
    04:00 +12°C° 0.1 mm 1 mps 606 mmHg 96%
    05:00 +12°C° 0.1 mm 0 mps 607 mmHg 96%
    06:00 +12°C° 0.1 mm 0 mps 607 mmHg 95%
    07:00 +13°C° 0.1 mm 0 mps 608 mmHg 95%
    08:00 +15°C° 0.3 mm 0 mps 609 mmHg 88%
    09:00 +17°C° 0.3 mm 0 mps 610 mmHg 81%
    10:00 +21°C° 0.3 mm 1 mps 611 mmHg 74%
    11:00 +21°C° 0.7 mm 1 mps 610 mmHg 77%
    12:00 +21°C° 0.7 mm 1 mps 609 mmHg 81%
    13:00 +21°C° 0.7 mm 1 mps 608 mmHg 84%
    14:00 +20°C° 0.6 mm 1 mps 608 mmHg 85%
    15:00 +20°C° 0.6 mm 1 mps 607 mmHg 85%
    16:00 +20°C° 0.6 mm 1 mps 606 mmHg 86%
    17:00 +18°C° 0.7 mm 1 mps 606 mmHg 90%
    18:00 +15°C° 0.7 mm 0 mps 607 mmHg 94%
    19:00 +14°C° 0.7 mm 0 mps 607 mmHg 98%
    20:00 +13°C° 0.2 mm 0 mps 607 mmHg 97%
    21:00 +13°C° 0.2 mm 0 mps 607 mmHg 97%
    22:00 +13°C° 0.2 mm 0 mps 607 mmHg 97%
    23:00 +13°C° 0.2 mm 0 mps 607 mmHg 97%
    Show more